Location: Milton
(43.5183°N, 79.8775°W)
Time: 09:19:36
(UTC+00:00)

UNISAT 6 - Pass Details

Date: 27 March 2023
Orbit: 599 x 680 km, 97.7° (Epoch: 02 June)

Event Time Altitude Azimuth Distance (km) Brightness Sun altitude
Rises 09:42:32 0° 154° (SSE) 2,883 ? -16.4°
Reaches altitude 10° 09:44:43 10° 149° (SSE) 1,993 ? -16.0°
Maximum altitude 09:48:57 54° 73° (ENE) 778 ? -15.3°
Drops below altitude 10° 09:53:19 10° 356° (N) 2,059 ? -14.5°
Sets 09:55:36 0° 352° (N) 2,987 ? -14.2°
